sat.trackr.live / text

‹ back to catalog

STARLINK-6054

NORAD 56465 · 2023-064T

PAYLOAD ACTIVE UNKNOWN

§ Identity

Operator
Country
US
Launch date
2023-05-10
Launch site
AFWTR
Launch vehicle
Mass (kg)
RCS (m²)

Purposes: comms

External: N2YO · Heavens-Above · Gunter

§ Orbital elements

Epoch: 2026-05-25T01:11:32.640576Z

Period
96.11 min
Inclination
69.9990°
Eccentricity
0.0003192
Mean motion
14.98332129 rev/d
Perigee alt
569.8 km
Apogee alt
574.3 km
Semi-major
6,950.2 km
B*
3.2694e-5
RAAN
271.7622°
Arg perigee
270.8455°
Mean anomaly
89.2338°
Rev number
16,767

§ Raw data

STARLINK-60541 56465U 23064T   26145.04968334  .00000297  00000+0  32694-4 0  99912 56465  69.9990 271.7622 0003192 270.8455  89.2338 14.98332129167675

JSON: /api/v1/satellites/56465 · /tle

For live sub-satellite position, see the globe view (requires WebGL).

§ Visibility from observer

Set your observer location to see the next 7 days of passes ≥ 10°. The values pass through the URL so the page stays shareable.

No JS? Fill the form by hand. The geolocation button needs JavaScript.